Regional Weather Roundup
Issued by NWS

Home | Current Version | Previous Version | Text Only | Print | Product List | Glossary On
Versions: 1 2 3 4 5 6 7 8 9 10 11 12 13 14 15 16 17 18 19 20 21 22 23 24 25 26 27
000
ASUS42 KFFC 260203
RWRGA
WEATHER ROUNDUP FOR GEORGIA
NATIONAL WEATHER SERVICE PEACHTREE CITY GA
1000 PM EDT SAT OCT 25 2014

NOTE: "FAIR" INDICATES FEW OR NO CLOUDS BELOW 12,000 FEET WITH NO
SIGNIFICANT WEATHER AND/OR OBSTRUCTIONS TO VISIBILITY.

* = USE WITH CAUTION. THE STATIONS MARKED WITH AN ASTERISK MAY NOT
REPORT WEATHER SUCH AS PRECIPITATION, FOG, OR THUNDER AND ARE NOT
QUALITY CONTROLLED BY NWS.

THE REMARK "TC" DENOTES TEMPERATURE READING IN DEGREES CELSIUS.

GAZ001>058-260300-
NORTH GEORGIA

CITY           SKY/WX    TMP DP  RH WIND       PRES   REMARKS
ATLANTA        CLEAR     63  50  62 NW7       30.04R
ATHENS         CLEAR     62  49  62 W7        30.00R
CHAMBLEE       CLEAR     56  49  77 CALM      30.04R
PEACHTREE CITY CLEAR     54  51  90 CALM      30.05R
ROME           CLEAR     58  54  86 CALM      30.03S
WEST ATLANTA   CLEAR     58  51  78 CALM      30.04S
GAINESVILLE    CLEAR     62  51  67 W8        30.05R
CARTERSVILLE   CLOUDY    58  53  84 CALM      30.06R


CITY           SKY/WX    TMP DP  RH WIND       PRES   REMARKS
DALTON*        CLEAR     54  54 100 CALM      30.05R
MARIETTA       CLEAR     60  52  76 W8        30.05R
KENNESAW*      CLEAR     57  48  72 CALM      30.07R
$$

GAZ059>098-102>109-260300-
CENTRAL GEORGIA

CITY           SKY/WX    TMP DP  RH WIND       PRES   REMARKS
AUGUSTA-BUSH   CLEAR     50  43  77 CALM      29.99R
AUGUSTA-DANIEL CLEAR     65  45  48 CALM      30.00R
COLUMBUS       CLEAR     67  51  56 N7        30.04R
MACON          CLEAR     55  51  86 W3        30.01S
ROBINS AFB     CLEAR     55  53  92 E1        30.01S


CITY           SKY/WX    TMP DP  RH WIND       PRES   REMARKS
LAGRANGE*      CLEAR     57  56  95 CALM      30.05S
SYLVANIA*      CLEAR     58  56  93 CALM      30.00S
MILLEDGEVILLE* CLEAR     55  54  94 CALM      30.01R
$$

GAZ099>101-110>166-260300-
SOUTH GEORGIA

CITY           SKY/WX    TMP DP  RH WIND       PRES   REMARKS
SAVANNAH       CLEAR     58  51  78 CALM      29.99S
VALDOSTA       CLEAR     53  44  71 CALM      30.03R
ALMA           CLEAR     55  51  86 CALM      30.02R FOG
ST SIMONS      CLEAR     58  53  84 CALM      30.01R
FT STEWART     CLEAR     56  51  84 CALM      29.99R
ALBANY         CLEAR     58  51  78 CALM      30.05R
HUNTER AFB     CLEAR     55  52  88 CALM      29.97S
MOODY AFB      CLEAR     58  46  66 CALM      30.03R
BRUNSWICK      CLEAR     55  54  94 CALM      30.02R


CITY           SKY/WX    TMP DP  RH WIND       PRES   REMARKS
BAINBRIDGE*    CLEAR     61  50  67 CALM      30.04R
MOULTRIE*      CLEAR     57  54  88 CALM      30.04S
VIDALIA*       CLEAR     59  52  77 CALM      30.01S
WAYCROSS*      CLEAR     57  54  88 CALM      30.02R
DOUGLAS*       CLEAR     59  52  77 CALM      30.04R
$$



USA.gov is the U.S. government's official web portal to all federal, state and local government web resources and services.